Powrót do katalogu

COSMOS 1275 DEB

AktywnyPO
NORAD 12782·DEBRIS·🇷🇺 Russia

Wystrzelony Jun 4, 1981 z Plesetsk Cosmodrome

Loading…

Następne Przeloty (najbliższe 24 godziny)

TLE

ŚwieżeSource: Space-Track

Epoka: Sep 14, 2026, 08:57 UTC

1 12782U 81053DY  26257.37347867  .00000317  00000-0  31417-3 0  9994
2 12782  82.9985  41.8771 0074110 338.8929  49.4416 13.74350453245550

Śledź COSMOS 1275 DEB w czasie rzeczywistym z AllMySat

Download on the App Store